Location: Dodgeville, WI 53533, USA
(43.0344°N, 90.0900°W)
Time: 04:53:53
(UTC-06:00)

X-37B - Pass Details

Date: 28 January 2021
Orbit: 383 x 391 km, 45.0° (Epoch: 27 February)

Event Time Altitude Azimuth Distance (km) Brightness Sun altitude
Rises 19:29:29 0° 284° (WNW) 2,275 5.7 -25.9°
Reaches altitude 10° 19:31:40 10° 275° (W) 1,419 4.4 -26.3°
Enters shadow 19:33:07 22° 258° (WSW) 921 3.2 -26.5°
